Location: Camaret
(48.2753°N, 4.5961°W)
Time: 00:53:40
(UTC+00:00)

CZ-4C R/B - Pass Details

Date: 29 October 2020
Orbit: 624 x 1378 km, 63.4° (Epoch: 26 November)

Event Time Altitude Azimuth Distance (km) Brightness Sun altitude
Rises 18:37:52 0° 314° (NW) 3,607 6.1 -16.2°
Reaches altitude 10° 18:40:33 10° 325° (NW) 2,778 5.3 -16.6°
Maximum altitude 18:46:30 33° 28° (NNE) 1,822 3.7 -17.6°
Enters shadow 18:49:38 24° 67° (ENE) 2,242 3.8 -18.1°
